ONEWEB-0010, 44058

Orbit data source: Space-Track

ONEWEB-0010, 44058 is a payload satellite owned by One Web (UK) in LEO that was launched on Wed, 27 Feb 2019 UTC via a SOYUZ-ST-B launch vehicle from the French Guiana (FRGUI). Payload-class satellites include a variety of spacecraft equipped with specific instruments for various scientific and technological missions. These include communications satellites like Starlink; space stations such as the ISS; scientific satellites like the Hubble; Earth observation satellites from companies like Planet Labs, Umbra, and HawkEye 360; GPS; miniature CubeSats for education and research; and military/defense satellites.

Loading next visibility...
Identifier
44058, 2019-010B
Orbit
LEO
Country
Flag of UKUK
Related business
Manufacturer
Airbus/Toulouse
Mission
Operational Commercial Communications
Bus & Motor
ARROW, Unknown motor
Mass
148 kg wet, ~140 kg dry
Launch date (UTC)
2019-02-27 (7 years ago)
Launch vehicle
SOYUZ-ST-B
Launch site
French Guiana (FRGUI)
Object type
Payload
Rocket body
Debris
Shape & HBR
Trap Box + 2 Pan, 6.7 m
Radar Cross Section
3.464 m², Large (>1 m²)

Expand to show TLE details & history
Last TLE update: 8 hours ago

TLE from 8 hours ago
0 ONEWEB-0010
1 44058U 19010B   26128.22811435  .00000166  00000-0  40146-3 0  9998
2 44058  87.9096 236.7144 0001712  93.4894 266.6433 13.16595282346350
Epoch: 2026-05-08T05:28Z
TLE epoch observation values (Epoch: 2026-05-08T05:28:29.079Z)
Latitude
-0.00002°
Longitude
-71.46968°
Altitude
1,200.726 km
Speed
7.254 km/s
True Right ascension
15h 46m 51s
True Declination
0° 00' 00"
Sunlit
Object was in full shadow at epoch
Visualization orbit readout
Latitude
Unknown
Longitude
Unknown
Altitude
Unknown
Speed
Unknown
Apparent Right ascension
Unknown
Apparent Declination
Unknown
Sunlit
N/A
Visualization observer readout
Local Sidereal Time
21:35:27
Azimuth
Unknown
Elevation
Unknown
Doppler factor
Unknown
Orbital elements
Apogee altitude
1,196.16 km
Perigee altitude
1,193.567 km
Semi-major axis
7,573 km
Eccentricity
0.00017
Inclination
87.9096°
RAAN
236.7144°
Arg. of periapsis
93.4894°
True anomaly
266.62372°
Mean anomaly
266.6433°
Eccentric anomaly
266.63351°
Mean motion
3.29338 °/min
Orbital period
109.31 mins
BSTAR
0.00040146
Loading maneuver chart data...
Computing Atmospheric mass density...
Loading historical data...
Loading historical data...
Loading historical data...
Loading historical data...
Loading historical data...
Loading historical data...
Loading historical data...
Other satellites on launch #10 in the year 2019 (2019-02-27 UTC)

Documentation

Showing up to 5 results
|